Regional Weather Roundup
Issued by NWS Upton, NY

Current Version | Previous Version | Text Only | Print | Product List | Glossary On
Versions: 1 2 3 4 5 6 7 8 9 10 11 12 13 14 15 16 17 18 19 20 21 22 23 24 25 26 27 28 29 30 31 32 33 34 35 36 37 38 39 40 41 42 43 44 45 46 47 48 49 50
000
ASUS41 KOKX 201407
RWROKX

REGIONAL WEATHER ROUNDUP
NATIONAL WEATHER SERVICE NEW YORK NY
1000 AM EDT MON APR 20 2015

NOTE: "FAIR" INDICATES FEW OR NO CLOUDS BELOW 12,000 FEET WITH NO
SIGNIFICANT WEATHER AND/OR OBSTRUCTIONS TO VISIBILITY.

NYZ071-072-176-178-NJZ106-104-201500-
NEW YORK CITY METRO AREA


CITY           SKY/WX    TMP DP  RH WIND       PRES   REMARKS
CENTRAL PARK   HVY RAIN  50  48  93 E14G21    29.85F VSB 3/4
LAGUARDIA APRT HVY RAIN  49  45  86 NE17G23   29.83F FOG
KENNEDY INTL   RAIN      52  48  86 E24G40    29.80F FOG
NEWARK/LIBERTY RAIN      54  50  87 E20G33    29.77F VSB 1
BRNX BOT. GARD   N/A     45  45 100 N3        29.83F
TETERBORO      RAIN      48  45  89 VRB5      29.81F
$$

NYZ177-179-078>081-201500-
LONG ISLAND NEW YORK

CITY           SKY/WX    TMP DP  RH WIND       PRES   REMARKS
FARMINGDALE    LGT RAIN  51  49  92 E25G39    29.83F FOG
ISLIP          LGT RAIN  51  47  86 E30G41    29.85F FOG
SHIRLEY        LGT RAIN  49  46  90 E16G28    29.90F FOG
WESTHAMPTON    RAIN      47  44  90 E20G31    29.93F FOG
MONTAUK POINT    N/A     48  41  76 E15G26    30.01F
$$

NYZ052-065-067-201500-
HUDSON VALLEY

CITY           SKY/WX    TMP DP  RH WIND       PRES   REMARKS
WHITE PLAINS   RAIN      46  44  93 E17G25    29.85F FOG
NEWBURGH       CLOUDY    48  48 100 E13G25    29.86F FOG
MONTGOMERY     LGT RAIN  50  32  50 E9G18     29.86F
POUGHKEEPSIE   LGT RAIN  50  45  83 E10G18    29.87F
ALBANY         CLOUDY    49  37  63 SE15G25   29.90F
$$

NJZ001-105-106-008-010-013-015-019>022-104-201500-
NEW JERSEY

CITY           SKY/WX    TMP DP  RH WIND       PRES   REMARKS
NEWARK/LIBERTY RAIN      54  50  87 E20G33    29.77F VSB 1
TETERBORO      RAIN      48  45  89 VRB5      29.81F
CALDWELL       HVY RAIN  47  32  56 E13       29.81F
MORRISTOWN     LGT RAIN  48  46  93 NE10G17   29.80F FOG
SOMERVILLE     HVY RAIN  53  50  89 VRB3      29.76F VSB 1
SUSSEX         RAIN      49  44  83 NE16G22   29.81F
ANDOVER          N/A     50  47  89 VRB5      29.78F
TRENTON        HVY RAIN  53  51  93 N10       29.73R FOG
MILLVILLE      LGT RAIN  61  60  97 S8        29.69S FOG
ATLANTIC CITY  RAIN      60  58  92 S17G29    29.71R FOG
WRIGHTSTOWN    RAIN      60  60 100 SE14G30   29.67R FOG
TOMS RIVER     CLOUDY    57  55  94 SE21G33   29.72F
BELMAR         CLOUDY    55  48  76 SE21G37   29.73F
$$

PAZ047>061-062-071-201500-
EASTERN PENNSYLVANIA

CITY           SKY/WX    TMP DP  RH WIND       PRES   REMARKS
PHILADELPHIA   LGT RAIN  59  57  93 NE9       29.69F FOG
ALLENTOWN      LGT RAIN  52  50  93 E12       29.73F FOG
SCRANTON       LGT RAIN  55  46  71 SE17G39   29.68F
$$

CTZ002-004>006-009-010-012-RIZ004-006-007-MAZ004-011-015-201500-
SOUTHERN NEW ENGLAND
 IN CT

CITY           SKY/WX    TMP DP  RH WIND       PRES   REMARKS
BRADLEY INTL   CLOUDY    48  41  76 E10G17    30.00F
HARTFORD       CLOUDY    48  41  76 E15G21    29.99F
DANBURY        LGT RAIN  48  44  86 E21G30    29.91F FOG
WTRBRY/OXFORD  RAIN      46  39  76 E13G23    29.94F FOG
BRIDGEPORT     RAIN      45  43  93 E25G35    29.92F FOG
MERIDEN        LGT RAIN  50  44  80 E14G21    29.96F
NEW HAVEN      LGT RAIN  46  42  86 E25G38    29.94F FOG
CHESTER        LGT RAIN  48  43  81 E15G23    29.99F
GROTON         CLOUDY    48  41  76 E25G35    30.01F
WILLIMANTIC    LGT RAIN  47  41  80 E9G17     30.03F

 IN RI

CITY           SKY/WX    TMP DP  RH WIND       PRES   REMARKS
PROVIDENCE     CLOUDY    46  41  82 NE9       30.09F
BLOCK ISLAND   CLOUDY    45  37  76 E15G25    30.03F
WESTERLY       CLOUDY    47  41  80 E16G30    30.04F

 IN MA

CITY           SKY/WX    TMP DP  RH WIND       PRES   REMARKS
BOSTON         CLOUDY    42  40  92 E17       30.17F
WORCESTER      CLOUDY    41  39  93 E12G21    30.07F
WESTFIELD      CLOUDY    45  40  82 E9        30.01F
PROVINCETOWN   CLOUDY   N/A N/A N/A E17G25    30.16F
NANTUCKET      CLOUDY    46  39  76 E22G30    30.11F
$$

ANZ330-335-338-340-345-350-353-355-201500-
COASTAL MARINE OBSERVATIONS


STATION/POSITION TIME  SKY/WX   TEMP    WIND        PRES    VSBY  WAVE
                                AIR SEA DIR/SP/G                  HT/PER
                 (UTC)          (F)     (DEG/KT/KT) (MB)    (MI)  (FT/S)
NY HARB ENTRANCE 1350            49 44  100/ 25/ 31 1006.8          8/ 7
4S FIRE IS       1303               44                N/A           7/ 6
20S FIRE ISLAND  1250               44              1011.1          7/ 6
23SW MTP         NOT AVBL
HUDSON CANYON    NOT AVBL
EXECUTION ROCKS  NOT AVBL
WESTERN LI SOUND NOT AVBL
CENTRAL LI SOUND NOT AVBL
EASTERN LI SOUND 1300            44      80/ 21/ 29   N/A
ROBBINS REEF     1300            50     100/ 30/ 38 1008.4
$$


>>>>>>>>>>>>>>>>>>>>>>>>>>>> KEY <<<<<<<<<<<<<<<<<<<<<<<<<<<
>                                                          <
>     SKY/WX - SKY CONDITION/PRESENT WEATHER               <
>     TMP    - TEMPERATURE IN FAHRENHEIT                   <
>     DP     - DEWPOINT IN FAHRENHEIT                      <
>     RH     - RELATIVE HUMIDITY IN PERCENT                <
>     WIND   - DIRECTION AND SPEED IN MPH                  <
>     PRES   - MEAN SEA LEVEL PRESSURE IN INCHES OF HG     <
>     WCI    - WIND CHILL INDEX                            <
>     VSB    - VISIBILITY IN MILES                         <
>     HX     - HEAT INDEX                                  <
>     TC     - TEMPERATURE IN CELSIUS                      <
>     VRB    - VARIABLE WIND DIRECTION                     <
>                                                          <
>>>>>>>>>>>>>>>>>>>>>>>>>>>> KEY <<<<<<<<<<<<<<<<<<<<<<<<<<<




USA.gov is the U.S. government's official web portal to all federal, state and local government web resources and services.